Location: Izdebno
(52.6670°N, 16.2170°E)
Time: 13:17:44
(UTC+02:00)

Vanguard 2 - Pass Details

Date: 01 February 2023
Orbit: 553 x 2927 km, 32.9° (Epoch: 26 March)

Event Time Altitude Azimuth Distance (km) Brightness Sun altitude
Rises 23:29:42 0° 238° (WSW) 6,027 - -53.5°
Reaches altitude 10° 23:33:50 10° 230° (SW) 5,272 - -53.6°
Maximum altitude 23:47:53 36° 172° (S) 3,964 - -54.1°
Drops below altitude 10° 00:02:39 10° 115° (ESE) 5,541 - -54.3°
Exits shadow 00:06:59 - 107° (ESE) 6,333 12.1 -54.3°
Sets 00:07:07 0° 107° (ESE) 6,358 12.1 -54.3°
